カタログに戻る

CZ-6A DEB

運用中PO
NORAD 56240·DEBRIS·🇨🇳 China

打ち上げ Nov 11, 2022 から Taiyuan Satellite Launch Center

Loading…

次のパス (今後24時間)

TLE

最新Source: Space-Track

元期: Sep 14, 2026, 14:03 UTC

1 56240U 22151ABG 26257.58550911  .00012593  00000-0  13668-2 0  9990
2 56240  98.8165  17.6436 0061064 326.2118  33.5209 14.86936291192703

AllMySatでCZ-6A DEBをリアルタイム追跡

Download on the App Store